www.pogodaiklimat.ru

Погода и климат >> Архив погоды >> Индия >> Pendra Road


ПОГОДА в Pendra Road

  • Прогноз погоды в Pendra Road
  • Монитор погоды в Pendra Road
  • Климат города

АРХИВ ПОГОДЫ в Pendra Road

Время (UTC), дата Ветер
(напр.,м/с)
 
Видим.   Явления Облачность Т
(С)
Тd
(С)
f
(%)
Тe
(С)
Тes
(С)
Комфортность P
(гПа)
Po
(гПа)
Тmin
(С)
Tmax
(С)
R
(мм)
R24
(мм)
S
(см)
12 14.10 штиль 0 4000 м 3/3 750 м
[Cu hum]
+27.4 +16.9 53 +31 +31 душно 1010.1 941.9 +31.5
15 14.10 штиль 0 4000 м ясно +22.8 +16.5 68 +27 +27 душно 1012.7 943.2
18 14.10 штиль 0 4000 м ясно +20.4 +15.6 74 +23 +23 комфорт 1013.4 943.3
21 14.10 штиль 0 4000 м ясно +20.4 +15.6 74 +23 +23 комфорт 1013.4 943.3
00 15.10 штиль 0 4000 м 3/0
[Ci fib]
+17.4 +15.1 86 +17 +17 1014.3 943.5
03 15.10 штиль 0 4000 м ясно +22.2 +15.5 66 +26 +33 душно 1015.8 946.1 +15.0
06 15.10 З 1 4000 м ясно +30.4 +13.5 36 +32 +50 жарко 1013.5 945.7
09 15.10 СВ 1 4000 м ясно +32.0 +10.7 27 +32 +43 жарко 1010.4 943.0
12 15.10 штиль 0 4000 м ясно +28.0 +13.8 42 +30 +30 жарко 1011.1 942.9 +32.5
15 15.10 штиль 0 4000 м ясно +22.4 +13.8 58 +26 +26 жарко 1014.2 944.7
18 15.10 штиль 0 4000 м ясно +20.0 +12.9 64 +22 +22 комфорт 1015.1 944.8
21 15.10 штиль 0 4000 м ясно +18.8 +15.2 80 +20 +20 1014.3 943.8
00 16.10 штиль 0 4000 м ясно +17.8 +12.3 70 +18 +18 1014.6 943.8
03 16.10 штиль 0 4000 м ясно +23.0 +14.2 58 +27 +33 душно 1015.5 945.8 +15.7
06 16.10 СВ 1 4000 м ясно +30.8 +10.8 29 +31 +50 жарко 1013.9 946.1
09 16.10 ЮЗ 1 4000 м 1/1 750 м
[Cu hum]
+32.6 +10.7 26 +32 +42 жарко 1009.7 942.7
12 16.10 штиль 0 4000 м ясно +29.6 +17.1 47 +33 +34 душно 1009.9 942.2 +33.2
15 16.10 штиль 0 4000 м ясно +24.0 +17.8 68 +28 +28 душно 1013.6 944.3
18 16.10 штиль 0 4000 м ясно +21.8 +16.4 71 +26 +26 душно 1014.4 944.6
21 16.10 штиль 0 4000 м ясно +21.8 +16.4 71 +26 +26 душно 1014.4 944.6
00 17.10 штиль 0 4000 м ясно +19.8 +15.6 77 +22 +22 комфорт 1013.8 943.5
03 17.10 ЮЗ 1 4000 м ясно +24.0 +17.8 68 +28 +34 душно 1014.0 944.7 +17.5
06 17.10 ЮЗ 1 4000 м 1/1 750 м
[Cu hum]
+31.0 +13.3 34 +32 +48 жарко 1011.7 944.0
09 17.10 штиль 0 4000 м 3/3 900 м
[Cu hum]
+33.0 +10.3 25 +32 +41 жарко 1008.6 941.6
12 17.10 штиль 0 4000 м 4/4 600 м
[Sc]
+28.0 +19.7 61 +34 +34 очень
душно
1008.9 940.8 +33.4
15 17.10 штиль 0 4000 м 4/1 600 м
[Sc Ac trans]
+24.4 +19.9 76 +30 +30 очень
душно
1011.5 942.6
18 17.10 штиль 0 4000 м 3/1 600 м
[Sc Ac trans]
+22.4 +17.7 75 +27 +27 душно 1012.5 942.8
21 17.10 штиль 0 4000 м 4/1 600 м
[Sc Ac trans]
+21.4 +17.3 77 +25 +25 комфорт 1011.5 941.6
00 18.10 штиль 0 4000 м 9/4 600 м
[Sc Ac trans]
+20.6 +17.1 80 +24 +24 комфорт 1012.0 942.3
03 18.10 штиль 0 4000 м 4/0
[Ac trans]
+24.0 +17.5 67 +28 +33 душно 1013.4 944.1 +19.2
06 18.10 ЮВ 1 4000 м 3/0
[Ci fib]
+30.8 +14.3 37 +33 +50 душно 1011.4 943.7
09 18.10 штиль 0 4000 м 3/3 600 м
[Cu Sc]
+33.2 +15.2 34 +35 +44 душно 1007.9 941.1
12 18.10 штиль 0 4000 м 5/3 600 м
[Sc Ac trans]
+28.4 +19.5 59 +34 +34 очень
душно
1009.4 941.4 +33.6
15 18.10 штиль 0 4000 м ясно +25.0 +19.3 71 +30 +30 душно 1011.7 942.8
18 18.10 штиль 0 4000 м ясно +22.4 +17.1 72 +27 +27 душно 1012.2 942.8
21 18.10 штиль 0 4000 м ясно +20.4 +16.3 77 +23 +23 комфорт 1011.4 941.5
00 19.10 штиль 0 4000 м ясно +19.8 +15.2 75 +22 +22 комфорт 1012.6 942.5
03 19.10 штиль 0 4000 м ясно +24.8 +18.7 69 +30 +36 душно 1014.0 944.9 +17.1
06 19.10 ЮЗ 1 4000 м 1/1 750 м
[Cu hum]
+32.4 +11.8 28 +32 +48 жарко 1011.4 944.2
09 19.10 штиль 0 4000 м 1/1 750 м
[Cu hum]
+33.2 +14.8 33 +35 +46 душно 1009.0 942.2
12 19.10 штиль 0 4000 м 8/4 600 м
[Sc Ac trans]
+29.2 +17.7 50 +34 +34 очень
душно
1010.5 942.8 +34.0
15 19.10 штиль 0 4000 м ясно +24.8 +18.1 66 +29 +29 душно 1013.1 944.0
18 19.10 штиль 0 4000 м ясно +22.4 +16.7 70 +27 +27 душно 1013.7 944.2
21 19.10 штиль 0 4000 м ясно +21.0 +16.2 74 +24 +24 комфорт 1013.5 943.4
00 20.10 штиль 0 4000 м ясно +20.2 +15.3 73 +22 +22 комфорт 1013.9 943.8
03 20.10 штиль 0 4000 м ясно +24.8 +15.5 56 +28 +34 жарко 1015.5 946.3 +17.9
06 20.10 штиль 0 4000 м 1/1 750 м
[Cu hum]
+31.4 +15.2 38 +34 +51 опасность
солнечного
удара
1013.7 946.1
09 20.10 штиль 0 4000 м 1/1 750 м
[Cu hum]
+32.8 +12.9 30 +33 +44 жарко 1010.6 943.4
12 20.10 штиль 0 4000 м 1/1 750 м
[Cu hum]
+29.4 +16.8 47 +33 +33 душно 1011.4 943.5 +34.0
15 20.10 штиль 0 4000 м ясно +24.4 +15.9 59 +28 +28 душно 1014.6 945.4
18 20.10 штиль 0 4000 м ясно +22.8 +16.8 69 +28 +28 душно 1015.1 945.4
21 20.10 штиль 0 4000 м ясно +21.6 +17.2 76 +26 +26 душно 1014.0 944.2
00 21.10 штиль 0 4000 м ясно +21.4 +16.3 73 +25 +25 комфорт 1014.4 944.6
03 21.10 штиль 0 4000 м ясно +25.6 +16.9 59 +29 +36 душно 1015.4 946.4 +18.9
06 21.10 штиль 0 4000 м 5/3 750 м
[Cu med, cong Ac trans]
+31.4 +17.1 42 +35 +46 очень
душно
1013.2 945.6
09 21.10 штиль 0 4000 м 5/5 600 м
[Cu Sc]
+31.8 +18.4 45 +37 +43 очень
душно
1010.9 943.5

 

Местоположение метеостанции Pendra Road (Chhattisgarh, Индия): широта 22.77 долгота 81.90 высота над уровнем моря 625 м.

В архиве по умолчанию представлена погода в Pendra Road за последнюю неделю. Архивные данные за месяц целиком и за предыдущие месяцы, начиная с января 2011 года, Вы можете получить, выбрав интересующий диапазон дат из раскрывающегося списка и нажав кнопку "Ввод!".


*Определитесь, кто Вы:
робот инопланетянин человек

Внимание! Время в таблицах - всемирное. Для получения местного времени необходимо прибавить поправку, которая в Pendra Road равна 5.5 ч.

Смотрите также архив погоды в соседних городах и на ближайших метеорологических станциях:

Погода в Raipur Airport (Chhattisgarh, Индия) (65 км)
Погода в Bilaspur (Chhattisgarh, Индия) (80 км)
Погода в Umaria (Madhya Pradesh, Индия) (134 км)
Погода в Ambikapur (Chhattisgarh, Индия) (145 км)
Погода в Malanjkhand (Madhya Pradesh, Индия) (150 км)
Погода в Mandla (Madhya Pradesh, Индия) (158 км)
Погода в Raipur (Chhattisgarh, Индия) (173 км)
Погода в Sidhi (Madhya Pradesh, Индия) (184 км)
Погода в Durg (Chhattisgarh, Индия) (188 км)
Погода в Rewa (Madhya Pradesh, Индия) (205 км)

Пояснения к столбцам:

Ветер - указаны скорость ветра в м/с - средняя за 10 мин, порывы в срок и между сроками (в фигурных скобках) и направление, откуда дует ветер: С - северный, СВ - северо-восточный, В - восточный, ЮВ - юго-восточный, Ю - южный, ЮЗ - юго-западный, З - западный, СЗ - северо-западный.
Видимость - горизонтальная дальность видимости в метрах или километрах. При видимости от 1 до 10 км при отсутствии осадков обычно наблюдается дымка, при ухудшении видимости до 1 км и менее - туман. В сухую погоду видимость может ухудшаться дымом, пылью или мглою.
Явления - указаны атмосферные явления, наблюдавшиеся в срок или в последний час перед сроком; фигурными скобками обозначены явления, наблюдавшиеся между сроками (за 1-3 часа до срока); квадратными скобками обозначены град или гололедные отложения с указанием их диаметра в мм.
Облачность - указаны через наклонную черту общая и нижняя облачность в баллах и высота нижней границы облаков в метрах; квадратными скобками обозначены формы облаков: Ci - перистые, Cs - перисто-слоистые, Cc - перисто-кучевые, Ac - высококучевые, As - высокослоистые, Sc - слоисто-кучевые, Ns - слоисто-дождевые, Cu - кучевые, Cb - кучево-дождевые. Подробнее классификацию облаков см. в Атласе облаков (PDF).
T - Температура воздуха - температура, измеренная на высоте 2 м над землей.
Td - Температура точки росы - температура, при понижении до которой содержащийся в воздухе водяной пар достигнет насыщения.
f - Относительная влажность воздуха - влажноcть воздуха, измеренная на высоте 2 м над землей.
Te - Эффективная температура - температура, которую ощущает одетый по сезону человек в тени. Характеристика душности погоды. При расчете учитывается влияние влажности воздуха и скорости ветра на теплоощущения человека.
Tes - Эффективная температура на солнце - температура, которую ощущает человек, с поправкой на солнечный нагрев. Характеристика знойности погоды. Зависит от высоты солнца над горизонтом, облачности и скорости ветра. Ночью, в пасмурную погоду, а также при ветре 12 м/с и более поправка равна нулю.
P - Атмосферное давление - приведенное к уровню моря атмосферное давление.
Po - Атмосферное давление - измеренное на уровне метеостанции атмосферное давление.
Tmin - Минимальная температура - минимум температуры воздуха на высоте 2 м над землей.
Tmax - Максимальная температура - максимум температуры воздуха на высоте 2 м над землей.
R - Количество осадков - Количество выпавших осадков за период времени, мм. При наведении курсора мыши на число - период времени, за который выпало указанное количество осадков.
R24 - Количество осадков - Количество выпавших осадков за 24 часа, мм.
S - Снежный покров - Высота снежного покрова, см. При наведении курсора мыши на число - состояние снежного покрова и степень покрытия местности в баллах.